Stations météo

réclame
Mon MeteoGroup
Inverbervie, Grande-Bretagne (3088): Température de l'air & dewpoint: 07.12.2017 03:00:00 - 13.12.2017 03:00:00 (GMT)Inverbervie, Grande-Bretagne (3088): Température de l'air -20cm & Température de l'air -100cm: 07.12.2017 03:00:00 - 13.12.2017 03:00:00 (GMT)Inverbervie, Grande-Bretagne (3088): Vitesse du vent & gusts: 07.12.2017 03:00:00 - 13.12.2017 03:00:00 (GMT)Inverbervie, Grande-Bretagne (3088): Direction du vent: 07.12.2017 03:00:00 - 13.12.2017 03:00:00 (GMT)Inverbervie, Grande-Bretagne (3088): reduced air pressure: 07.12.2017 03:00:00 - 13.12.2017 03:00:00 (GMT)Inverbervie, Grande-Bretagne (3088): visibility: 07.12.2017 03:00:00 - 13.12.2017 03:00:00 (GMT)Inverbervie, Grande-Bretagne (3088): Quantités de précipitations: 07.12.2017 03:00:00 - 13.12.2017 03:00:00 (GMT)
Date & Time tt [°C] td [°C] tt -20cm [°C] tt -100cm [°C] ff [km/h] ff [knt] fx [km/h] fx [knt] dd ppp [hPa] vv [km] rr [mm]
13.12.2017 03:00:00 - - - - - - - - - - - 0,0
13.12.2017 02:00:00 1,1 -0,1 - - 22 12 - - W 990,9 25 0,0
13.12.2017 01:00:00 1,1 0,7 - - 11 6 - - W 991,4 26 0,0
13.12.2017 00:00:00 1,2 0,9 - - 21 11 - - WSW 991,6 11 0,0
12.12.2017 23:00:00 2,0 1,7 - - 24 13 - - SW 991,7 14 0,0
12.12.2017 22:00:00 2,5 2,2 - - 31 17 48 26 SW 992,2 30 0,4
12.12.2017 21:00:00 3,0 2,5 - - 37 20 52 28 SW 993,2 10 0,8
12.12.2017 20:00:00 2,5 2,2 - - 29 16 - - SSW 994,4 11 0,2
12.12.2017 19:00:00 1,4 0,5 - - 29 16 - - SW 995,8 13 0,0
12.12.2017 18:00:00 1,1 0,2 - - 28 15 - - SW 996,7 21 0,0
12.12.2017 17:00:00 0,3 -1,7 - - 21 11 - - SW 997,7 30 0,0
12.12.2017 16:00:00 0,0 -2,6 - - 21 11 - - SW 998,5 50 0,0
12.12.2017 15:00:00 0,5 -2,9 - - 11 6 - - W 998,9 45 0,0
12.12.2017 14:00:00 0,7 -2,0 - - 15 8 - - W 999,6 35 0,0
12.12.2017 13:00:00 0,3 -2,4 - - 13 7 - - WNW 1000,3 35 0,0
12.12.2017 12:00:00 0,4 -3,6 - - 11 6 - - NW 1000,6 35 0,0
12.12.2017 11:00:00 -0,4 -3,6 - - 13 7 - - NW 1000,9 35 0,0
12.12.2017 10:00:00 -0,8 -4,0 - - 11 6 - - NW 1001,2 35 0,0
12.12.2017 09:00:00 -0,7 -3,9 4,4 6,7 11 6 - - WNW 1001,0 45 0,0
12.12.2017 08:00:00 -1,1 -4,2 - - 9 5 - - W 1001,2 45 0,0
12.12.2017 07:00:00 0,0 -3,4 - - 16 9 - - WNW 1000,8 40 0,0
12.12.2017 06:00:00 0,3 -3,3 - - 13 7 - - WNW 1000,7 35 0,0
12.12.2017 05:00:00 1,6 -2,3 - - 11 6 - - W 1000,6 45 0,0
12.12.2017 04:00:00 1,2 -1,6 - - 21 11 - - WNW 1000,4 45 0,0
12.12.2017 03:00:00 0,4 -1,7 - - 22 12 - - WNW 1000,5 50 0,0
12.12.2017 02:00:00 0,8 -1,5 - - 22 12 - - WNW 1000,1 50 0,0
12.12.2017 01:00:00 1,1 -0,8 - - 24 13 - - WNW 999,3 50 0,0
12.12.2017 00:00:00 0,8 -0,4 - - 21 11 - - WNW 998,5 50 0,0
11.12.2017 23:00:00 0,8 -0,5 - - 16 9 - - NW 998,6 45 0,0
11.12.2017 22:00:00 1,4 0,3 - - 18 10 - - NNW 998,2 40 0,0
11.12.2017 21:00:00 1,2 0,1 - - 21 11 - - NNW 997,8 50 0,0
11.12.2017 20:00:00 1,1 0,2 - - 21 11 - - NNW 997,4 50 0,0
11.12.2017 19:00:00 0,8 0,0 - - 21 11 - - NNW 996,2 45 0,0
11.12.2017 18:00:00 1,1 0,1 - - 22 12 - - NNW 995,0 50 0,0
11.12.2017 17:00:00 1,5 0,5 - - 18 10 - - NNW 994,1 45 0,0
11.12.2017 16:00:00 1,5 0,4 - - 18 10 - - NNW 993,2 50 0,0
11.12.2017 15:00:00 1,8 0,3 - - 18 10 - - NNW 992,2 50 0,0
11.12.2017 14:00:00 2,2 0,4 - - 18 10 - - NNW 991,2 50 0,0
11.12.2017 13:00:00 2,5 0,5 - - 22 12 - - NNW 990,6 45 0,0
11.12.2017 12:00:00 2,1 0,3 - - 24 13 - - NNW 989,9 35 0,6
11.12.2017 11:00:00 1,7 0,1 - - 18 10 - - NNW 989,6 45 0,0
11.12.2017 10:00:00 0,2 -0,8 - - 16 9 - - NNW 988,8 45 0,0
11.12.2017 09:00:00 -1,2 -2,3 4,7 6,7 11 6 - - NW 988,3 45 0,0
11.12.2017 08:00:00 -0,7 -2,1 - - 15 8 - - NNW 987,3 50 0,0
11.12.2017 07:00:00 -0,4 -2,0 - - 11 6 - - NW 986,6 50 0,0
11.12.2017 06:00:00 -1,6 -3,2 - - 11 6 - - NW 986,2 50 0,0
11.12.2017 05:00:00 -1,9 -3,6 - - 16 9 - - NW 985,7 50 0,0
11.12.2017 04:00:00 -1,4 -3,9 - - 9 5 - - NW 985,3 50 0,0
11.12.2017 03:00:00 -1,6 -3,4 - - 11 6 - - NW 984,8 50 0,0
11.12.2017 02:00:00 -1,8 -3,8 - - 9 5 - - WNW 983,9 50 0,0
11.12.2017 01:00:00 -1,5 -3,8 - - 15 8 - - NW 983,6 35 0,0
11.12.2017 00:00:00 -2,3 -5,3 - - 8 4 - - NNW 983,3 45 0,0
10.12.2017 23:00:00 -3,1 -6,4 - - 16 9 - - NW 982,9 50 0,0
10.12.2017 22:00:00 -4,4 -6,9 - - 13 7 - - NW 982,5 50 0,0
10.12.2017 21:00:00 -3,6 -6,5 - - 13 7 - - WNW 982,5 50 0,0
10.12.2017 20:00:00 -3,9 -6,2 - - 9 5 - - WNW 982,0 45 0,0
10.12.2017 19:00:00 -4,1 -6,2 - - 11 6 - - WNW 982,0 30 0,0
10.12.2017 18:00:00 -3,5 -5,7 - - 11 6 - - NW 981,7 40 0,0
10.12.2017 17:00:00 -2,7 -5,5 - - 13 7 - - WNW 981,5 45 0,0
10.12.2017 16:00:00 -1,5 -4,9 - - 11 6 - - WNW 981,2 35 0,0
10.12.2017 15:00:00 -0,6 -4,8 - - 11 6 - - NW 981,2 40 0,0
10.12.2017 14:00:00 -0,3 -4,2 - - 13 7 - - NW 981,6 45 0,0
10.12.2017 13:00:00 -0,5 -4,1 - - 11 6 - - WNW 982,2 35 0,0
10.12.2017 12:00:00 -1,4 -4,7 - - 13 7 - - NW 982,8 30 0,0
10.12.2017 11:00:00 -2,3 -5,8 - - 11 6 - - NW 983,6 40 0,0
10.12.2017 10:00:00 -3,4 -6,2 - - 15 8 - - NW 984,5 45 0,0
10.12.2017 09:00:00 -3,5 -6,1 5,0 7,0 15 8 - - WNW 985,5 45 0,0
10.12.2017 08:00:00 -3,6 -6,1 - - 13 7 - - WNW 986,3 45 0,0
10.12.2017 07:00:00 -3,8 -6,1 - - 15 8 - - NW 987,1 50 0,0
10.12.2017 06:00:00 -4,4 -6,4 - - 11 6 - - WNW 988,4 40 0,0
10.12.2017 05:00:00 -4,1 -6,5 - - 11 6 - - WNW 989,6 50 0,0
10.12.2017 04:00:00 -2,8 -5,4 - - 9 5 - - W 991,2 50 0,0
10.12.2017 03:00:00 -2,0 -5,3 - - 11 6 - - W 992,8 50 0,0
10.12.2017 02:00:00 -2,0 -5,1 - - 13 7 - - W 994,2 45 0,0
10.12.2017 01:00:00 -3,6 -5,9 - - 13 7 - - WNW 995,5 45 0,0
10.12.2017 00:00:00 -2,9 -6,0 - - 13 7 - - WNW 996,9 50 0,0
09.12.2017 23:00:00 -2,1 -5,2 - - 21 11 - - WNW 998,3 50 0,0
09.12.2017 22:00:00 -2,0 -4,7 - - 21 11 - - WNW 999,6 45 0,0
09.12.2017 21:00:00 -1,7 -4,8 - - 18 10 - - WNW 1000,7 50 0,0
09.12.2017 20:00:00 -1,7 -4,6 - - 21 11 - - WNW 1002,1 45 0,0
09.12.2017 19:00:00 -1,2 -4,5 - - 16 9 - - W 1003,0 50 0,0
09.12.2017 18:00:00 -1,2 -3,9 - - 18 10 - - W 1004,0 50 0,0
09.12.2017 17:00:00 -0,8 -3,9 - - 16 9 - - W 1004,7 50 0,0
09.12.2017 16:00:00 -0,2 -3,6 - - 22 12 - - WNW 1005,4 50 0,0
09.12.2017 15:00:00 0,1 -3,3 - - 22 12 - - W 1006,0 40 0,0
09.12.2017 14:00:00 0,5 -3,3 - - 28 15 - - WNW 1006,7 40 0,0
09.12.2017 13:00:00 0,3 -2,7 - - 26 14 - - WNW 1007,8 45 0,0
09.12.2017 12:00:00 0,5 -2,8 - - 22 12 - - W 1008,8 50 0,0
09.12.2017 11:00:00 0,2 -3,1 - - 18 10 - - W 1009,7 45 0,0
09.12.2017 10:00:00 -0,3 -3,2 - - 22 12 - - W 1010,2 50 0,0
09.12.2017 09:00:00 -0,2 -3,2 5,2 7,0 29 16 - - WNW 1010,4 50 0,0
09.12.2017 08:00:00 -0,3 -3,1 - - 35 19 48 26 WNW 1010,5 50 0,0
09.12.2017 07:00:00 -0,3 -3,0 - - 34 18 46 25 WNW 1010,8 45 0,0
09.12.2017 06:00:00 0,0 -2,7 - - 34 18 48 26 WNW 1011,2 50 0,0
09.12.2017 05:00:00 0,2 -2,6 - - 34 18 50 27 WNW 1011,4 50 0,0
09.12.2017 04:00:00 0,5 -2,3 - - 22 12 - - WNW 1012,0 50 0,0
09.12.2017 03:00:00 0,0 -2,4 - - 22 12 46 25 WNW 1012,4 45 0,0
09.12.2017 02:00:00 0,5 -1,8 - - 29 16 52 28 WNW 1012,1 35 0,0
09.12.2017 01:00:00 0,5 -1,1 - - 39 21 57 31 WNW 1011,5 35 0,0
09.12.2017 00:00:00 0,3 -0,6 - - 42 23 57 31 NW 1011,7 17 0,0
08.12.2017 23:00:00 0,2 -0,4 - - 28 15 50 27 WNW 1011,8 35 0,0
08.12.2017 22:00:00 0,0 -0,4 - - 34 18 52 28 NW 1012,0 0,4 0,0
08.12.2017 21:00:00 0,1 -0,3 - - 37 20 59 32 NW 1011,2 1,7 0,0
08.12.2017 20:00:00 0,5 -1,2 - - 44 24 74 40 NW 1010,6 0,9 0,0
08.12.2017 19:00:00 1,2 -2,6 - - 46 25 78 42 WNW 1008,8 35 0,0
08.12.2017 18:00:00 0,9 -2,8 - - 50 27 93 50 WNW 1008,5 35 0,0
08.12.2017 17:00:00 0,5 -3,2 - - 65 35 91 49 NW 1006,9 45 0,0
08.12.2017 16:00:00 0,4 -4,0 - - 52 28 78 42 NW 1007,0 35 0,0
08.12.2017 15:00:00 0,5 -4,1 - - 44 24 74 40 NW 1007,8 30 0,0
08.12.2017 14:00:00 0,4 -4,5 - - 48 26 70 38 WNW 1007,7 40 0,0
08.12.2017 13:00:00 0,7 -4,4 - - 39 21 63 34 WNW 1008,3 40 0,0
08.12.2017 12:00:00 0,6 -4,7 - - 35 19 65 35 WNW 1008,3 35 0,0
08.12.2017 11:00:00 0,5 -4,6 - - 41 22 76 41 WNW 1008,0 19 0,0
08.12.2017 10:00:00 0,3 -4,3 - - 59 32 83 45 NW 1005,9 35 0,0
08.12.2017 09:00:00 0,2 -4,2 5,7 7,0 55 30 81 44 NW 1005,0 50 0,0
08.12.2017 08:00:00 0,3 -4,1 - - 59 32 87 47 NW 1004,4 50 0,0
08.12.2017 07:00:00 0,2 -4,2 - - 52 28 72 39 WNW 1004,2 45 0,0
08.12.2017 06:00:00 0,0 -4,6 - - 46 25 68 37 WNW 1003,9 40 0,0
08.12.2017 05:00:00 -0,4 -4,7 - - 35 19 55 30 WNW 1003,7 40 0,0
08.12.2017 04:00:00 -0,5 -4,4 - - 37 20 59 32 WNW 1003,9 40 0,0
08.12.2017 03:00:00 0,0 -4,8 - - 44 24 70 38 WNW 1003,3 40 0,0
08.12.2017 02:00:00 0,2 -4,1 - - 42 23 63 34 WNW 1002,8 35 0,0
08.12.2017 01:00:00 0,5 -3,4 - - 41 22 57 31 WNW 1002,7 40 0,0
08.12.2017 00:00:00 0,8 -2,6 - - 26 14 54 29 WNW 1002,6 30 0,0
07.12.2017 23:00:00 1,6 -3,7 - - 29 16 46 25 W 1001,4 35 0,0
07.12.2017 22:00:00 2,0 -3,6 - - 26 14 48 26 W 1000,9 26 0,0
07.12.2017 21:00:00 2,3 -3,3 - - 28 15 48 26 WNW 1000,0 21 0,0
07.12.2017 20:00:00 2,3 -1,7 - - 34 18 57 31 W 999,1 40 0,0
07.12.2017 19:00:00 2,5 -1,7 - - 28 15 - - W 999,0 27 0,0
07.12.2017 18:00:00 2,8 -0,7 - - 28 15 55 30 W 998,0 45 0,0
07.12.2017 17:00:00 2,9 -0,8 - - 31 17 72 39 WNW 996,5 45 0,0
07.12.2017 16:00:00 3,4 -0,4 - - 44 24 67 36 WNW 994,4 50 0,0
07.12.2017 15:00:00 4,1 0,8 - - 37 20 81 44 W 993,6 45 0,0
07.12.2017 14:00:00 5,7 -1,5 - - 52 28 81 44 W 991,9 50 0,0
07.12.2017 13:00:00 6,0 -1,6 - - 54 29 87 47 W 991,1 40 0,0
07.12.2017 12:00:00 5,0 0,7 - - 54 29 80 43 WSW 990,7 30 0,0
07.12.2017 11:00:00 4,8 0,9 - - 50 27 72 39 WSW 990,0 40 0,0
07.12.2017 10:00:00 5,5 1,1 - - 52 28 76 41 W 988,8 40 0,0
07.12.2017 09:00:00 5,6 2,3 6,0 7,0 59 32 85 46 WSW 987,6 35 0,0
07.12.2017 08:00:00 5,8 2,4 - - 57 31 83 45 WSW 987,1 26 0,0
07.12.2017 07:00:00 5,8 1,3 - - 57 31 74 40 WSW 987,2 22 0,0
07.12.2017 06:00:00 5,3 0,4 - - 50 27 98 53 WSW 987,4 21 0,0
07.12.2017 05:00:00 8,5 5,2 - - 55 30 89 48 W 986,1 50 0,0
07.12.2017 04:00:00 11,7 10,9 - - 48 26 67 36 WSW 985,8 50 0,4
07.12.2017 03:00:00 10,5 10,2 - - 54 29 72 39 SW 986,5 8 0,6

tt = Température de l'air
td = dewpoint
tt -20cm = Température de l'air -20cm
tt -100cm = Température de l'air -100cm
ff = Vitesse du vent
fx = gusts
dd = Direction du vent
ppp = reduced air pressure
vv = visibility
rr = Quantités de précipitations

stations d'obs. à proximité